, SD

(GMT )
Rapid City

Weather History for KRAP - January, 2014

Change the Weather History Date:

Friday, January 17, 2014

  Actual Average Record
Temperature  
Mean Temperature 34 °F 25 °F  
Max Temperature 52 °F 37 °F 62 °F (1972)
Min Temperature 16 °F 13 °F -24 °F (1943)
Degree Days  
Heating Degree Days 31 40  
Month to date heating degree days 659 682  
Since 1 July heating degree days 3802 3598  
Cooling Degree Days 0 0  
Month to date cooling degree days 0 0  
Year to date cooling degree days 0 0  
Moisture  
Dew Point 18 °F    
Average Humidity 56    
Maximum Humidity 80    
Minimum Humidity 31    
Precipitation  
Precipitation 0.00 in 0.01 in 0.22 in (1996)
Month to date precipitation 0.19 0.18  
Year to date precipitation 0.19 0.18  
Snow  
Snow 0.00 in 0.10 in 8.00 in (1996)
Month to date snowfall 2.2 2.4  
Since 1 July snowfall 35.6 15.6  
Snow Depth 0.00 in    
Sea Level Pressure  
Sea Level Pressure 30.04 in    
Wind  
Wind Speed 10 mph (WNW)    
Max Wind Speed 35 mph    
Max Gust Speed 44 mph    
Visibility 10 miles    
Events      
T = Trace of Precipitation, MM = Missing Value Source: NWS Daily Summary

Daily Weather History Graph

Daily Weather History Graph

Search for Another Location

Airport or City:

Trip Planner

Search our weather history database for the weather conditions in past years. The results will help you decide how hot, cold, wet, or windy it might be!

Date:

Astronomy

Jan. 17, 2014 Rise Set
Actual Time 7:22 AM MST 4:42 PM MST
Civil Twilight 6:50 AM MST 5:14 PM MST
Nautical Twilight 6:15 AM MST 5:50 PM MST
Astronomical Twilight 5:40 AM MST 6:24 PM MST
Moon 6:36 PM MST (1/17) 7:47 AM MST (1/17)
Length of Visible Light 10h 23m
Length of Day
9h 19m
Full, 98% of the Moon is Illuminated
Jan 17
Full
Jan 23
Last Quarter
Jan 30
New
Feb 6
First Quarter
Feb 14
Full

Hourly Weather History & Observations

Time (MST) Temp. Windchill Dew Point Humidity Pressure Visibility Wind Dir Wind Speed Gust Speed Precip Events Conditions
12:52 AM 23.0 °F 17.0 °F 12.9 °F 65% 30.26 in 10.0 mi West 4.6 mph - N/A   Clear
1:52 AM 21.0 °F - 12.0 °F 68% 30.24 in 10.0 mi Calm Calm - N/A   Clear
2:52 AM 21.0 °F 9.9 °F 12.0 °F 68% 30.23 in 10.0 mi NW 10.4 mph - N/A   Clear
3:52 AM 16.0 °F 10.4 °F 10.0 °F 77% 30.22 in 10.0 mi NW 3.5 mph - N/A   Clear
4:52 AM 17.1 °F - 10.9 °F 77% 30.22 in 10.0 mi Calm Calm - N/A   Overcast
5:52 AM 17.1 °F 11.7 °F 10.9 °F 77% 30.20 in 10.0 mi WNW 3.5 mph - N/A   Partly Cloudy
6:52 AM 18.0 °F - 10.9 °F 74% 30.16 in 10.0 mi Calm Calm - N/A   Mostly Cloudy
7:52 AM 27.0 °F 18.0 °F 15.1 °F 61% 30.12 in 10.0 mi SSW 9.2 mph - N/A   Overcast
8:52 AM 28.9 °F 23.9 °F 17.1 °F 61% 30.10 in 10.0 mi ESE 4.6 mph - N/A   Overcast
9:52 AM 30.9 °F 27.5 °F 17.1 °F 57% 30.08 in 10.0 mi SE 3.5 mph - N/A   Overcast
10:52 AM 37.0 °F 33.3 °F 19.0 °F 48% 30.06 in 10.0 mi SSW 4.6 mph - N/A   Clear
11:52 AM 43.0 °F 40.3 °F 21.0 °F 42% 30.02 in 10.0 mi South 4.6 mph - N/A   Clear
12:52 PM 46.9 °F - 21.0 °F 36% 29.98 in 10.0 mi Calm Calm - N/A   Partly Cloudy
1:52 PM 48.0 °F - 21.0 °F 34% 29.95 in 10.0 mi Calm Calm - N/A   Mostly Cloudy
2:52 PM 50.0 °F - 21.9 °F 33% 29.94 in 10.0 mi East 5.8 mph - N/A   Clear
3:29 PM 48.2 °F - 19.4 °F 32% 29.86 in 10.0 mi NW 19.6 mph 27.6 mph N/A   Clear
3:52 PM 48.9 °F - 19.9 °F 32% 29.94 in 10.0 mi NW 19.6 mph - N/A   Clear
4:52 PM 42.1 °F 35.2 °F 19.9 °F 41% 29.96 in 10.0 mi NNW 12.7 mph - N/A   Clear
5:52 PM 39.0 °F 31.4 °F 19.9 °F 46% 29.97 in 10.0 mi NNW 12.7 mph - N/A   Clear
6:52 PM 43.0 °F 34.5 °F 21.0 °F 42% 29.96 in 10.0 mi NW 19.6 mph 25.3 mph N/A   Clear
7:52 PM 43.0 °F 34.8 °F 21.0 °F 42% 29.94 in 10.0 mi NW 18.4 mph 26.5 mph N/A   Clear
8:52 PM 42.1 °F 33.6 °F 21.0 °F 43% 29.94 in 10.0 mi NW 18.4 mph - N/A   Clear
9:52 PM 42.1 °F 32.1 °F 21.9 °F 45% 29.92 in 10.0 mi NW 25.3 mph 32.2 mph N/A   Clear
10:52 PM 42.1 °F 31.3 °F 21.9 °F 45% 29.90 in 10.0 mi NW 29.9 mph 38.0 mph N/A   Clear
11:52 PM 42.1 °F 32.3 °F 23.0 °F 47% 29.87 in 10.0 mi NW 24.2 mph 35.7 mph N/A   Clear